Year,Month,Day,Hour,Minute,Value (Times are PST for temperature in C)
2020,04,26,00,00,10.40
2020,04,26,00,01,10.40
2020,04,26,00,02,10.40
2020,04,26,00,03,10.40
2020,04,26,00,04,10.40
2020,04,26,00,05,10.40
2020,04,26,00,06,10.40
2020,04,26,00,07,10.40
2020,04,26,00,08,10.40
2020,04,26,00,09,10.40
2020,04,26,00,10,10.40
2020,04,26,00,11,10.40
2020,04,26,00,12,10.40
2020,04,26,00,13,10.40
2020,04,26,00,14,10.40
2020,04,26,00,15,10.40
2020,04,26,00,16,10.40
2020,04,26,00,17,10.30
2020,04,26,00,18,10.30
2020,04,26,00,19,10.30
2020,04,26,00,20,10.30
2020,04,26,00,21,10.30
2020,04,26,00,22,10.30
2020,04,26,00,23,10.30
2020,04,26,00,24,10.30
2020,04,26,00,25,10.30
2020,04,26,00,26,10.30
2020,04,26,00,27,10.30
2020,04,26,00,28,10.30
2020,04,26,00,29,10.30
2020,04,26,00,30,10.30
2020,04,26,00,31,10.30
2020,04,26,00,32,10.30
2020,04,26,00,33,10.20
2020,04,26,00,34,10.20
2020,04,26,00,35,10.20
2020,04,26,00,36,10.20
2020,04,26,00,37,10.20
2020,04,26,00,38,10.20
2020,04,26,00,39,10.10
2020,04,26,00,40,10.10
2020,04,26,00,41,10.10
2020,04,26,00,42,10.10
2020,04,26,00,43,10.10
2020,04,26,00,44,10.10
2020,04,26,00,45,10.10
2020,04,26,00,46,10.10
2020,04,26,00,47,10.00
2020,04,26,00,48,10.00
2020,04,26,00,49,10.00
2020,04,26,00,50,10.00
2020,04,26,00,51,10.00
2020,04,26,00,52,10.00
2020,04,26,00,53,10.00
2020,04,26,00,54,10.00
2020,04,26,00,55,10.00
2020,04,26,00,56,10.10
2020,04,26,00,57,10.10
2020,04,26,00,58,10.10
2020,04,26,00,59,10.10
2020,04,26,01,00,10.00
2020,04,26,01,01,10.00
2020,04,26,01,02,10.00
2020,04,26,01,03,10.00
2020,04,26,01,04,10.00
2020,04,26,01,05,10.00
2020,04,26,01,06,9.90
2020,04,26,01,07,9.90
2020,04,26,01,08,9.90
2020,04,26,01,09,9.90
2020,04,26,01,10,9.90
2020,04,26,01,11,9.90
2020,04,26,01,12,9.90
2020,04,26,01,13,9.90
2020,04,26,01,14,9.90
2020,04,26,01,15,9.90
2020,04,26,01,16,9.90
2020,04,26,01,17,9.90
2020,04,26,01,18,9.90
2020,04,26,01,19,9.90
2020,04,26,01,20,9.90
2020,04,26,01,21,9.90
2020,04,26,01,22,9.90
2020,04,26,01,23,9.90
2020,04,26,01,24,9.90
2020,04,26,01,25,9.90
2020,04,26,01,26,9.90
2020,04,26,01,27,9.90
2020,04,26,01,28,9.90
2020,04,26,01,29,9.90
2020,04,26,01,30,9.90
2020,04,26,01,31,9.90
2020,04,26,01,32,9.90
2020,04,26,01,33,9.90
2020,04,26,01,34,9.90
2020,04,26,01,35,9.90
2020,04,26,01,36,10.00
2020,04,26,01,37,10.00
2020,04,26,01,38,10.00
2020,04,26,01,39,10.00
2020,04,26,01,40,10.00
2020,04,26,01,41,10.00
2020,04,26,01,42,10.00
2020,04,26,01,43,10.00
2020,04,26,01,44,10.00
2020,04,26,01,45,9.90
2020,04,26,01,46,9.90
2020,04,26,01,47,9.90
2020,04,26,01,48,9.90
2020,04,26,01,49,9.90
2020,04,26,01,50,9.90
2020,04,26,01,51,9.90
2020,04,26,01,52,9.90
2020,04,26,01,53,9.90
2020,04,26,01,54,9.90
2020,04,26,01,55,9.90
2020,04,26,01,56,9.90
2020,04,26,01,57,9.90
2020,04,26,01,58,10.00
2020,04,26,01,59,10.00
2020,04,26,02,00,9.90
2020,04,26,02,01,9.90
2020,04,26,02,02,10.00
2020,04,26,02,03,10.00
2020,04,26,02,04,10.00
2020,04,26,02,05,10.00
2020,04,26,02,06,10.00
2020,04,26,02,07,10.00
2020,04,26,02,08,10.00
2020,04,26,02,09,10.00
2020,04,26,02,10,10.00
2020,04,26,02,11,10.00
2020,04,26,02,12,10.00
2020,04,26,02,13,10.00
2020,04,26,02,14,10.00
2020,04,26,02,15,10.00
2020,04,26,02,16,10.10
2020,04,26,02,17,10.10
2020,04,26,02,18,10.10
2020,04,26,02,19,10.00
2020,04,26,02,20,10.00
2020,04,26,02,21,10.10
2020,04,26,02,22,10.10
2020,04,26,02,23,10.10
2020,04,26,02,24,10.10
2020,04,26,02,25,10.10
2020,04,26,02,26,10.10
2020,04,26,02,27,10.10
2020,04,26,02,28,10.10
2020,04,26,02,29,10.10
2020,04,26,02,30,10.20
2020,04,26,02,31,10.20
2020,04,26,02,32,10.20
2020,04,26,02,33,10.20
2020,04,26,02,34,10.20
2020,04,26,02,35,10.20
2020,04,26,02,36,10.20
2020,04,26,02,37,10.30
2020,04,26,02,38,10.30
2020,04,26,02,39,10.30
2020,04,26,02,40,10.30
2020,04,26,02,41,10.30
2020,04,26,02,42,10.30
2020,04,26,02,43,10.30
2020,04,26,02,44,10.30
2020,04,26,02,45,10.30
2020,04,26,02,46,10.30
2020,04,26,02,47,10.40
2020,04,26,02,48,10.40
2020,04,26,02,49,10.40
2020,04,26,02,50,10.40
2020,04,26,02,51,10.40
2020,04,26,02,52,10.40
2020,04,26,02,53,10.40
2020,04,26,02,54,10.40
2020,04,26,02,55,10.40
2020,04,26,02,56,10.40
2020,04,26,02,57,10.40
2020,04,26,02,58,10.40
2020,04,26,02,59,10.40
2020,04,26,03,00,10.40
2020,04,26,03,01,10.40
2020,04,26,03,02,10.30
2020,04,26,03,03,10.40
2020,04,26,03,04,10.40
2020,04,26,03,05,10.40
2020,04,26,03,06,10.30
2020,04,26,03,07,10.30
2020,04,26,03,08,10.30
2020,04,26,03,09,10.30
2020,04,26,03,10,10.30
2020,04,26,03,11,10.30
2020,04,26,03,12,10.30
2020,04,26,03,13,10.30
2020,04,26,03,14,10.30
2020,04,26,03,15,10.30
2020,04,26,03,16,10.30
2020,04,26,03,17,10.30
2020,04,26,03,18,10.30
2020,04,26,03,19,10.30
2020,04,26,03,20,10.30
2020,04,26,03,21,10.30
2020,04,26,03,22,10.30
2020,04,26,03,23,10.30
2020,04,26,03,24,10.40
2020,04,26,03,25,10.40
2020,04,26,03,26,10.40
2020,04,26,03,27,10.30
2020,04,26,03,28,10.30
2020,04,26,03,29,10.40
2020,04,26,03,30,10.40
2020,04,26,03,31,10.40
2020,04,26,03,32,10.40
2020,04,26,03,33,10.40
2020,04,26,03,34,10.30
2020,04,26,03,35,10.40
2020,04,26,03,36,10.30
2020,04,26,03,37,10.30
2020,04,26,03,38,10.30
2020,04,26,03,39,10.30
2020,04,26,03,40,10.30
2020,04,26,03,41,10.30
2020,04,26,03,42,10.30
2020,04,26,03,43,10.30
2020,04,26,03,44,10.30
2020,04,26,03,45,10.30
2020,04,26,03,46,10.30
2020,04,26,03,47,10.30
2020,04,26,03,48,10.30
2020,04,26,03,49,10.30
2020,04,26,03,50,10.20
2020,04,26,03,51,10.20
2020,04,26,03,52,10.20
2020,04,26,03,53,10.20
2020,04,26,03,54,10.20
2020,04,26,03,55,10.20
2020,04,26,03,56,10.20
2020,04,26,03,57,10.20
2020,04,26,03,58,10.20
2020,04,26,03,59,10.20
2020,04,26,04,00,10.20
2020,04,26,04,01,10.20
2020,04,26,04,02,10.20
2020,04,26,04,03,10.20
2020,04,26,04,04,10.20
2020,04,26,04,05,10.20
2020,04,26,04,06,10.20
2020,04,26,04,07,10.20
2020,04,26,04,08,10.20
2020,04,26,04,09,10.20
2020,04,26,04,10,10.20
2020,04,26,04,11,10.20
2020,04,26,04,12,10.20
2020,04,26,04,13,10.20
2020,04,26,04,14,10.20
2020,04,26,04,15,10.20
2020,04,26,04,16,10.20
2020,04,26,04,17,10.20
2020,04,26,04,18,10.10
2020,04,26,04,19,10.10
2020,04,26,04,20,10.10
2020,04,26,04,21,10.10
2020,04,26,04,22,10.10
2020,04,26,04,23,10.10
2020,04,26,04,24,10.10
2020,04,26,04,25,10.10
2020,04,26,04,26,10.10
2020,04,26,04,27,10.10
2020,04,26,04,28,10.00
2020,04,26,04,29,10.00
2020,04,26,04,30,10.00
2020,04,26,04,31,10.00
2020,04,26,04,32,10.00
2020,04,26,04,33,10.00
2020,04,26,04,34,10.00
2020,04,26,04,35,10.00
2020,04,26,04,36,10.00
2020,04,26,04,37,10.00
2020,04,26,04,38,10.00
2020,04,26,04,39,9.90
2020,04,26,04,40,9.90
2020,04,26,04,41,9.90
2020,04,26,04,42,9.90
2020,04,26,04,43,9.90
2020,04,26,04,44,9.90
2020,04,26,04,45,9.90
2020,04,26,04,46,9.90
2020,04,26,04,47,9.90
2020,04,26,04,48,9.90
2020,04,26,04,49,9.90
2020,04,26,04,50,9.90
2020,04,26,04,51,9.90
2020,04,26,04,52,9.90
2020,04,26,04,53,9.90
2020,04,26,04,54,9.90
2020,04,26,04,55,9.90
2020,04,26,04,56,9.90
2020,04,26,04,57,10.00
2020,04,26,04,58,10.00
2020,04,26,04,59,10.00
2020,04,26,05,00,10.00
2020,04,26,05,01,10.00
2020,04,26,05,02,10.00
2020,04,26,05,03,10.00
2020,04,26,05,04,10.00
2020,04,26,05,05,10.00
2020,04,26,05,06,10.00
2020,04,26,05,07,10.00
2020,04,26,05,08,10.00
2020,04,26,05,09,10.00
2020,04,26,05,10,10.00
2020,04,26,05,11,9.90
2020,04,26,05,12,9.90
2020,04,26,05,13,9.90
2020,04,26,05,14,9.90
2020,04,26,05,15,9.90
2020,04,26,05,16,9.90
2020,04,26,05,17,9.90
2020,04,26,05,18,9.90
2020,04,26,05,19,10.00
2020,04,26,05,20,10.00
2020,04,26,05,21,10.10
2020,04,26,05,22,10.10
2020,04,26,05,23,10.10
2020,04,26,05,24,10.10
2020,04,26,05,25,10.10
2020,04,26,05,26,10.10
2020,04,26,05,27,10.00
2020,04,26,05,28,10.00
2020,04,26,05,29,10.00
2020,04,26,05,30,10.00
2020,04,26,05,31,10.00
2020,04,26,05,32,9.90
2020,04,26,05,33,9.90
2020,04,26,05,34,9.90
2020,04,26,05,35,9.90
2020,04,26,05,36,9.90
2020,04,26,05,37,9.90
2020,04,26,05,38,9.80
2020,04,26,05,39,9.80
2020,04,26,05,40,9.80
2020,04,26,05,41,9.80
2020,04,26,05,42,9.80
2020,04,26,05,43,9.80
2020,04,26,05,44,9.80
2020,04,26,05,45,9.80
2020,04,26,05,46,9.80
2020,04,26,05,47,9.80
2020,04,26,05,48,9.80
2020,04,26,05,49,9.80
2020,04,26,05,50,9.80
2020,04,26,05,51,9.80
2020,04,26,05,52,9.80
2020,04,26,05,53,9.80
2020,04,26,05,54,9.70
2020,04,26,05,55,9.70
2020,04,26,05,56,9.70
2020,04,26,05,57,9.60
2020,04,26,05,58,9.60
2020,04,26,05,59,9.60
2020,04,26,06,00,9.60
2020,04,26,06,01,9.50
2020,04,26,06,02,9.50
2020,04,26,06,03,9.50
2020,04,26,06,04,9.40
2020,04,26,06,05,9.40
2020,04,26,06,06,9.40
2020,04,26,06,07,9.40
2020,04,26,06,08,9.40
2020,04,26,06,09,9.40
2020,04,26,06,10,9.40
2020,04,26,06,11,9.40
2020,04,26,06,12,9.40
2020,04,26,06,13,9.40
2020,04,26,06,14,9.40
2020,04,26,06,15,9.30
2020,04,26,06,16,9.30
2020,04,26,06,17,9.30
2020,04,26,06,18,9.30
2020,04,26,06,19,9.30
2020,04,26,06,20,9.30
2020,04,26,06,21,9.30
2020,04,26,06,22,9.30
2020,04,26,06,23,9.30
2020,04,26,06,24,9.30
2020,04,26,06,25,9.30
2020,04,26,11,54,11.40
2020,04,26,11,55,11.40
2020,04,26,11,56,11.40
2020,04,26,11,57,11.40
2020,04,26,11,58,11.50
2020,04,26,11,59,11.50
2020,04,26,12,00,11.50
2020,04,26,12,01,11.50
2020,04,26,12,02,11.50
2020,04,26,12,03,11.40
2020,04,26,12,04,11.40
2020,04,26,12,05,11.40
2020,04,26,12,06,11.40
2020,04,26,12,07,11.40
2020,04,26,12,08,11.30
2020,04,26,12,09,11.30
2020,04,26,12,10,11.30
2020,04,26,12,11,11.20
2020,04,26,12,12,11.20
2020,04,26,12,13,11.20
2020,04,26,12,14,11.20
2020,04,26,12,15,11.20
2020,04,26,12,16,11.20
2020,04,26,12,17,11.20
2020,04,26,12,18,11.20
2020,04,26,12,19,11.20
2020,04,26,12,20,11.20
2020,04,26,12,21,11.20
2020,04,26,12,22,11.20
2020,04,26,12,23,11.30
2020,04,26,12,24,11.30
2020,04,26,12,25,11.30
2020,04,26,12,26,11.30
2020,04,26,12,27,11.30
2020,04,26,12,28,11.30
2020,04,26,12,29,11.30
2020,04,26,12,30,11.30
2020,04,26,12,31,11.30
2020,04,26,12,32,11.30
2020,04,26,12,33,11.40
2020,04,26,12,34,11.40
2020,04,26,12,35,11.40
2020,04,26,12,36,11.50
2020,04,26,12,37,11.50
2020,04,26,12,38,11.60
2020,04,26,12,39,11.60
2020,04,26,12,40,11.60
2020,04,26,12,41,11.60
2020,04,26,12,42,11.60
2020,04,26,12,43,11.60
2020,04,26,12,44,11.60
2020,04,26,12,45,11.60
2020,04,26,12,46,11.60
2020,04,26,12,47,11.60
2020,04,26,12,48,11.60
2020,04,26,12,49,11.60
2020,04,26,12,50,11.60
2020,04,26,12,51,11.60
2020,04,26,12,52,11.60
2020,04,26,12,53,11.70
2020,04,26,12,54,11.70
2020,04,26,12,55,11.70
2020,04,26,12,56,11.70
2020,04,26,12,57,11.70
2020,04,26,12,58,11.80
2020,04,26,12,59,11.80
2020,04,26,13,00,11.80
2020,04,26,13,01,11.80
2020,04,26,13,02,11.80
2020,04,26,13,03,11.80
2020,04,26,13,04,11.80
2020,04,26,13,05,11.80
2020,04,26,13,06,11.80
2020,04,26,13,07,11.80
2020,04,26,13,08,11.80
2020,04,26,13,09,11.90
2020,04,26,13,10,11.90
2020,04,26,13,11,11.90
2020,04,26,13,12,11.90
2020,04,26,13,13,12.00
2020,04,26,13,14,12.10
2020,04,26,13,15,12.10
2020,04,26,13,16,12.10
2020,04,26,13,17,12.20
2020,04,26,13,18,12.20
2020,04,26,13,19,12.20
2020,04,26,13,20,12.20
2020,04,26,13,21,12.20
2020,04,26,13,22,12.20
2020,04,26,13,23,12.20
2020,04,26,13,24,12.20
2020,04,26,13,25,12.20
2020,04,26,13,26,12.20
2020,04,26,13,27,12.20
2020,04,26,13,28,12.20
2020,04,26,13,29,12.20
2020,04,26,13,30,12.20
2020,04,26,13,31,12.20
2020,04,26,13,32,12.20
2020,04,26,13,33,12.20
2020,04,26,13,34,12.20
2020,04,26,13,35,12.20
2020,04,26,13,36,12.20
2020,04,26,13,37,12.20
2020,04,26,13,38,12.20
2020,04,26,13,39,12.20
2020,04,26,13,40,12.20
2020,04,26,13,41,12.20
2020,04,26,13,42,12.20
2020,04,26,13,43,12.20
2020,04,26,13,44,12.20
2020,04,26,13,45,12.20
2020,04,26,13,46,12.20
2020,04,26,13,47,12.20
2020,04,26,13,48,12.20
2020,04,26,13,49,12.30
2020,04,26,13,50,12.30
2020,04,26,13,51,12.20
2020,04,26,13,52,12.30
2020,04,26,13,53,12.30
2020,04,26,13,54,12.30
2020,04,26,13,55,12.30
2020,04,26,13,56,12.30
2020,04,26,13,57,12.30
2020,04,26,13,58,12.30
2020,04,26,13,59,12.30
2020,04,26,14,00,12.30
2020,04,26,14,01,12.40
2020,04,26,14,02,12.40
2020,04,26,14,03,12.40
2020,04,26,14,04,12.50
2020,04,26,14,05,12.50
2020,04,26,14,06,12.50
2020,04,26,14,07,12.60
2020,04,26,14,08,12.60
2020,04,26,14,09,12.60
2020,04,26,14,10,12.60
2020,04,26,14,11,12.60
2020,04,26,14,12,12.70
2020,04,26,14,13,12.70
2020,04,26,14,14,12.70
2020,04,26,14,15,12.70
2020,04,26,14,16,12.70
2020,04,26,14,17,12.70
2020,04,26,14,18,12.70
2020,04,26,14,19,12.70
2020,04,26,14,20,12.70
2020,04,26,14,21,12.70
2020,04,26,14,22,12.70
2020,04,26,14,23,12.70
2020,04,26,14,24,12.80
2020,04,26,14,25,12.80
2020,04,26,14,26,12.80
2020,04,26,14,27,12.80
2020,04,26,14,28,12.90
2020,04,26,14,29,12.90
2020,04,26,14,30,12.90
2020,04,26,14,31,12.90
2020,04,26,14,32,12.90
2020,04,26,14,33,13.00
2020,04,26,14,34,13.00
2020,04,26,14,35,13.00
2020,04,26,14,36,13.10
2020,04,26,14,37,13.10
2020,04,26,14,38,13.20
2020,04,26,14,39,13.20
2020,04,26,14,40,13.20
2020,04,26,14,41,13.20
2020,04,26,14,42,13.30
2020,04,26,14,43,13.30
2020,04,26,14,44,13.30
2020,04,26,14,45,13.30
2020,04,26,14,46,13.20
2020,04,26,14,47,13.20
2020,04,26,14,48,13.20
2020,04,26,14,49,13.20
2020,04,26,14,50,13.20
2020,04,26,14,51,13.20
2020,04,26,14,52,13.20
2020,04,26,14,53,13.20
2020,04,26,14,54,13.20
2020,04,26,14,55,13.20
2020,04,26,14,56,13.20
2020,04,26,14,57,13.20
2020,04,26,14,58,13.20
2020,04,26,14,59,13.20
2020,04,26,15,00,13.20
2020,04,26,15,01,13.20
2020,04,26,15,02,13.20
2020,04,26,15,03,13.20
2020,04,26,15,04,13.30
2020,04,26,15,05,13.30
2020,04,26,15,06,13.30
2020,04,26,15,07,13.30
2020,04,26,15,08,13.30
2020,04,26,15,09,13.40
2020,04,26,15,10,13.40
2020,04,26,15,11,13.40
2020,04,26,15,12,13.40
2020,04,26,15,13,13.30
2020,04,26,15,14,13.30
2020,04,26,15,15,13.30
2020,04,26,15,16,13.30
2020,04,26,15,17,13.30
2020,04,26,15,18,13.30
2020,04,26,15,19,13.30
2020,04,26,15,20,13.30
2020,04,26,15,21,13.30
2020,04,26,15,22,13.30
2020,04,26,15,23,13.30
2020,04,26,15,24,13.30
2020,04,26,15,25,13.30
2020,04,26,15,26,13.30
2020,04,26,15,27,13.30
2020,04,26,15,28,13.30
2020,04,26,15,29,13.40
2020,04,26,15,30,13.40
2020,04,26,15,31,13.40
2020,04,26,15,32,13.40
2020,04,26,15,33,13.40
2020,04,26,15,34,13.50
2020,04,26,15,35,13.50
2020,04,26,15,36,13.50
2020,04,26,15,37,13.50
2020,04,26,15,38,13.50
2020,04,26,15,39,13.50
2020,04,26,15,40,13.60
2020,04,26,15,41,13.60
2020,04,26,15,42,13.60
2020,04,26,15,43,13.60
2020,04,26,15,44,13.60
2020,04,26,15,45,13.60
2020,04,26,15,46,13.60
2020,04,26,15,47,13.60
2020,04,26,15,48,13.60
2020,04,26,15,49,13.60
2020,04,26,15,50,13.60
2020,04,26,15,51,13.60
2020,04,26,15,52,13.50
2020,04,26,15,53,13.50
2020,04,26,15,54,13.50
2020,04,26,15,55,13.50
2020,04,26,15,56,13.50
2020,04,26,15,57,13.50
2020,04,26,15,58,13.50
2020,04,26,15,59,13.50
2020,04,26,16,00,13.50
2020,04,26,16,01,13.50
2020,04,26,16,02,13.60
2020,04,26,16,03,13.60
2020,04,26,16,04,13.50
2020,04,26,16,05,13.50
2020,04,26,16,06,13.60
2020,04,26,16,07,13.50
2020,04,26,16,08,13.60
2020,04,26,16,09,13.60
2020,04,26,16,10,13.60
2020,04,26,16,11,13.60
2020,04,26,16,12,13.70
2020,04,26,16,13,13.70
2020,04,26,16,14,13.70
2020,04,26,16,15,13.70
2020,04,26,16,16,13.80
2020,04,26,16,17,13.80
2020,04,26,16,18,13.80
2020,04,26,16,19,13.80
2020,04,26,16,20,13.90
2020,04,26,16,21,13.90
2020,04,26,16,22,13.90
2020,04,26,16,23,13.90
2020,04,26,16,24,14.00
2020,04,26,16,25,14.00
2020,04,26,16,26,14.10
2020,04,26,16,27,14.10
2020,04,26,16,28,14.10
2020,04,26,16,29,14.10
2020,04,26,16,30,14.10
2020,04,26,16,31,14.10
2020,04,26,16,32,14.10
2020,04,26,16,33,14.10
2020,04,26,16,34,14.20
2020,04,26,16,35,14.20
2020,04,26,16,36,14.20
2020,04,26,16,37,14.20
2020,04,26,16,38,14.20
2020,04,26,16,39,14.20
2020,04,26,16,40,14.20
2020,04,26,16,41,14.20
2020,04,26,16,42,14.10
2020,04,26,16,43,14.10
2020,04,26,16,44,14.10
2020,04,26,16,45,14.20
2020,04,26,16,46,14.20
2020,04,26,16,47,14.20
2020,04,26,16,48,14.20
2020,04,26,16,49,14.20
2020,04,26,16,50,14.20
2020,04,26,16,51,14.20
2020,04,26,16,52,14.20
2020,04,26,16,53,14.20
2020,04,26,16,54,14.20
2020,04,26,16,55,14.20
2020,04,26,16,56,14.20
2020,04,26,16,57,14.20
2020,04,26,16,58,14.10
2020,04,26,16,59,14.10
2020,04,26,17,00,14.10
2020,04,26,17,01,14.10
2020,04,26,17,02,14.10
2020,04,26,17,03,14.10
2020,04,26,17,04,14.10
2020,04,26,17,05,14.10
2020,04,26,17,06,14.10
2020,04,26,17,07,14.00
2020,04,26,17,08,14.00
2020,04,26,17,09,14.00
2020,04,26,17,10,14.00
2020,04,26,17,11,14.00
2020,04,26,17,12,14.00
2020,04,26,17,13,14.00
2020,04,26,17,14,14.00
2020,04,26,17,15,14.00
2020,04,26,17,16,14.00
2020,04,26,17,17,14.00
2020,04,26,17,18,14.00
2020,04,26,17,19,14.00
2020,04,26,17,20,13.90
2020,04,26,17,21,13.90
2020,04,26,17,22,13.90
2020,04,26,17,23,13.90
2020,04,26,17,24,13.90
2020,04,26,17,25,13.90
2020,04,26,17,26,13.90
2020,04,26,17,27,13.90
2020,04,26,17,28,13.90
2020,04,26,17,29,13.90
2020,04,26,17,30,13.90
2020,04,26,17,31,13.90
2020,04,26,17,32,13.90
2020,04,26,17,33,13.90
2020,04,26,17,34,13.90
2020,04,26,17,35,13.90
2020,04,26,17,36,13.90
2020,04,26,17,37,13.90
2020,04,26,17,38,13.90
2020,04,26,17,39,13.90
2020,04,26,17,40,13.90
2020,04,26,17,41,13.90
2020,04,26,17,42,13.90
2020,04,26,17,43,13.90
2020,04,26,17,44,13.90
2020,04,26,17,45,13.90
2020,04,26,17,46,13.90
2020,04,26,17,47,13.90
2020,04,26,17,48,13.90
2020,04,26,17,49,13.90
2020,04,26,17,50,13.90
2020,04,26,17,51,13.90
2020,04,26,17,52,13.90
2020,04,26,17,53,13.90
2020,04,26,17,54,14.00
2020,04,26,17,55,14.00
2020,04,26,17,56,14.00
2020,04,26,17,57,14.00
2020,04,26,17,58,14.00
2020,04,26,17,59,14.00
2020,04,26,18,00,14.00
2020,04,26,18,01,14.00
2020,04,26,18,02,14.00
2020,04,26,18,03,14.00
2020,04,26,18,04,14.10
2020,04,26,18,05,14.10
2020,04,26,18,06,14.10
2020,04,26,18,07,14.10
2020,04,26,18,08,14.10
2020,04,26,18,09,14.10
2020,04,26,18,10,14.10
2020,04,26,18,11,14.10
2020,04,26,18,12,14.10
2020,04,26,18,13,14.10
2020,04,26,18,14,14.10
2020,04,26,18,15,14.10
2020,04,26,18,16,14.10
2020,04,26,18,17,14.20
2020,04,26,18,18,14.20
2020,04,26,18,19,14.20
2020,04,26,18,20,14.20
2020,04,26,18,21,14.20
2020,04,26,18,22,14.20
2020,04,26,18,23,14.20
2020,04,26,18,24,14.20
2020,04,26,18,25,14.20
2020,04,26,18,26,14.20
2020,04,26,18,27,14.20
2020,04,26,18,28,14.20
2020,04,26,18,29,14.20
2020,04,26,18,30,14.20
2020,04,26,18,31,14.20
2020,04,26,18,32,14.20
2020,04,26,18,33,14.20
2020,04,26,18,34,14.20
2020,04,26,18,35,14.20
2020,04,26,18,36,14.20
2020,04,26,18,37,14.20
2020,04,26,18,38,14.20
2020,04,26,18,39,14.20
2020,04,26,18,40,14.20
2020,04,26,18,41,14.20
2020,04,26,18,42,14.20
2020,04,26,18,43,14.20
2020,04,26,18,44,14.20
2020,04,26,18,45,14.20
2020,04,26,18,46,14.20
2020,04,26,18,47,14.20
2020,04,26,18,48,14.20
2020,04,26,18,49,14.20
2020,04,26,18,50,14.20
2020,04,26,18,51,14.20
2020,04,26,18,52,14.20
2020,04,26,18,53,14.20
2020,04,26,18,54,14.10
2020,04,26,18,55,14.10
2020,04,26,18,56,14.10
2020,04,26,18,57,14.00
2020,04,26,18,58,14.00
2020,04,26,18,59,14.00
2020,04,26,19,00,14.00
2020,04,26,19,01,13.90
2020,04,26,19,02,13.90
2020,04,26,19,03,13.90
2020,04,26,19,04,13.90
2020,04,26,19,05,13.90
2020,04,26,19,06,13.90
2020,04,26,19,07,13.90
2020,04,26,19,08,13.90
2020,04,26,19,09,13.90
2020,04,26,19,10,13.90
2020,04,26,19,11,13.90
2020,04,26,19,12,13.90
2020,04,26,19,13,13.90
2020,04,26,19,14,13.90
2020,04,26,19,15,13.90
2020,04,26,19,16,13.90
2020,04,26,19,17,13.90
2020,04,26,19,18,13.90
2020,04,26,19,19,13.90
2020,04,26,19,20,13.90
2020,04,26,19,21,13.90
2020,04,26,19,22,13.90
2020,04,26,19,23,13.90
2020,04,26,19,24,13.90
2020,04,26,19,25,13.90
2020,04,26,19,26,13.90
2020,04,26,19,27,13.80
2020,04,26,19,28,13.90
2020,04,26,19,29,13.80
2020,04,26,19,30,13.80
2020,04,26,19,31,13.80
2020,04,26,19,32,13.80
2020,04,26,19,33,13.80
2020,04,26,19,34,13.80
2020,04,26,19,35,13.80
2020,04,26,19,36,13.80
2020,04,26,19,37,13.80
2020,04,26,19,38,13.80
2020,04,26,19,39,13.80
2020,04,26,19,40,13.80
2020,04,26,19,41,13.80
2020,04,26,19,42,13.80
2020,04,26,19,43,13.90
2020,04,26,19,44,13.90
2020,04,26,19,45,13.90
2020,04,26,19,46,13.90
2020,04,26,19,47,13.90
2020,04,26,19,48,13.90
2020,04,26,19,49,13.90
2020,04,26,19,50,13.90
2020,04,26,19,51,13.90
2020,04,26,19,52,13.90
2020,04,26,19,53,13.90
2020,04,26,19,54,13.90
2020,04,26,19,55,13.90
2020,04,26,19,56,13.80
2020,04,26,19,57,13.80
2020,04,26,19,58,13.80
2020,04,26,19,59,13.80
2020,04,26,20,00,13.80
2020,04,26,20,01,13.80
2020,04,26,20,02,13.80
2020,04,26,20,03,13.80
2020,04,26,20,04,13.80
2020,04,26,20,05,13.80
2020,04,26,20,06,13.80
2020,04,26,20,07,13.80
2020,04,26,20,08,13.80
2020,04,26,20,09,13.80
2020,04,26,20,10,13.80
2020,04,26,20,11,13.70
2020,04,26,20,12,13.70
2020,04,26,20,13,13.70
2020,04,26,20,14,13.70
2020,04,26,20,15,13.70
2020,04,26,20,16,13.70
2020,04,26,20,17,13.60
2020,04,26,20,18,13.60
2020,04,26,20,19,13.60
2020,04,26,20,20,13.60
2020,04,26,20,21,13.60
2020,04,26,20,22,13.60
2020,04,26,20,23,13.60
2020,04,26,20,24,13.60
2020,04,26,20,25,13.60
2020,04,26,20,26,13.60
2020,04,26,20,27,13.50
2020,04,26,20,28,13.50
2020,04,26,20,29,13.50
2020,04,26,20,30,13.50
2020,04,26,20,31,13.50
2020,04,26,20,32,13.40
2020,04,26,20,33,13.40
2020,04,26,20,34,13.40
2020,04,26,20,35,13.40
2020,04,26,20,36,13.40
2020,04,26,20,37,13.40
2020,04,26,20,38,13.40
2020,04,26,20,39,13.40
2020,04,26,20,40,13.40
2020,04,26,20,41,13.40
2020,04,26,20,42,13.40
2020,04,26,20,43,13.30
2020,04,26,20,44,13.30
2020,04,26,20,45,13.30
2020,04,26,20,46,13.30
2020,04,26,20,47,13.30
2020,04,26,20,48,13.30
2020,04,26,20,49,13.20
2020,04,26,20,50,13.20
2020,04,26,20,51,13.20
2020,04,26,20,52,13.20
2020,04,26,20,53,13.20
2020,04,26,20,54,13.20
2020,04,26,20,55,13.20
2020,04,26,20,56,13.10
2020,04,26,20,57,13.10
2020,04,26,20,58,13.10
2020,04,26,20,59,13.10
2020,04,26,21,00,13.00
2020,04,26,21,01,13.00
2020,04,26,21,02,13.00
2020,04,26,21,03,12.90
2020,04,26,21,04,12.90
2020,04,26,21,05,12.90
2020,04,26,21,06,12.80
2020,04,26,21,07,12.80
2020,04,26,21,08,12.70
2020,04,26,21,09,12.70
2020,04,26,21,10,12.70
2020,04,26,21,11,12.70
2020,04,26,21,12,12.70
2020,04,26,21,13,12.70
2020,04,26,21,14,12.60
2020,04,26,21,15,12.60
2020,04,26,21,16,12.60
2020,04,26,21,17,12.60
2020,04,26,21,18,12.60
2020,04,26,21,19,12.50
2020,04,26,21,20,12.40
2020,04,26,21,21,12.40
2020,04,26,21,22,12.40
2020,04,26,21,23,12.30
2020,04,26,21,24,12.30
2020,04,26,21,25,12.30
2020,04,26,21,26,12.20
2020,04,26,21,27,12.20
2020,04,26,21,28,12.20
2020,04,26,21,29,12.20
2020,04,26,21,30,12.10
2020,04,26,21,31,12.10
2020,04,26,21,32,12.10
2020,04,26,21,33,12.00
2020,04,26,21,34,12.00
2020,04,26,21,35,12.00
2020,04,26,21,36,11.90
2020,04,26,21,37,11.90
2020,04,26,21,38,11.90
2020,04,26,21,39,11.90
2020,04,26,21,40,11.90
2020,04,26,21,41,11.90
2020,04,26,21,42,11.90
2020,04,26,21,43,11.90
2020,04,26,21,44,11.80
2020,04,26,21,45,11.80
2020,04,26,21,46,11.80
2020,04,26,21,47,11.80
2020,04,26,21,48,11.80
2020,04,26,21,49,11.70
2020,04,26,21,50,11.70
2020,04,26,21,51,11.70
2020,04,26,21,52,11.70
2020,04,26,21,53,11.70
2020,04,26,21,54,11.60
2020,04,26,21,55,11.60
2020,04,26,21,56,11.60
2020,04,26,21,57,11.60
2020,04,26,21,58,11.60
2020,04,26,21,59,11.60
2020,04,26,22,00,11.60
2020,04,26,22,01,11.60
2020,04,26,22,02,11.60
2020,04,26,22,03,11.50
2020,04,26,22,04,11.50
2020,04,26,22,05,11.50
2020,04,26,22,06,11.40
2020,04,26,22,07,11.40
2020,04,26,22,08,11.40
2020,04,26,22,09,11.40
2020,04,26,22,10,11.40
2020,04,26,22,11,11.40
2020,04,26,22,12,11.40
2020,04,26,22,13,11.40
2020,04,26,22,14,11.30
2020,04,26,22,15,11.30
2020,04,26,22,16,11.30
2020,04,26,22,17,11.30
2020,04,26,22,18,11.20
2020,04,26,22,19,11.20
2020,04,26,22,20,11.20
2020,04,26,22,21,11.10
2020,04,26,22,22,11.10
2020,04,26,22,23,11.10
2020,04,26,22,24,11.00
2020,04,26,22,25,11.00
2020,04,26,22,26,11.00
2020,04,26,22,27,10.90
2020,04,26,22,28,10.90
2020,04,26,22,29,10.90
2020,04,26,22,30,10.80
2020,04,26,22,31,10.80
2020,04,26,22,32,10.80
2020,04,26,22,33,10.80
2020,04,26,22,34,10.70
2020,04,26,22,35,10.70
2020,04,26,22,36,10.70
2020,04,26,22,37,10.70
2020,04,26,22,38,10.60
2020,04,26,22,39,10.60
2020,04,26,22,40,10.60
2020,04,26,22,41,10.50
2020,04,26,22,42,10.40
2020,04,26,22,43,10.40
2020,04,26,22,44,10.40
2020,04,26,22,45,10.40
2020,04,26,22,46,10.30
2020,04,26,22,47,10.30
2020,04,26,22,48,10.30
2020,04,26,22,49,10.30
2020,04,26,22,50,10.30
2020,04,26,22,51,10.20
2020,04,26,22,52,10.20